Willimantic, CT

1:10 AM EST on December 06, 2019 (GMT -0500)
Windham

Weather History for KIJD - November, 2019

Change the Weather History Date:

Friday, November 15, 2019

  Actual Average Record
Temperature  
Mean Temperature 36 °F -  
Max Temperature 51 °F 50 °F 71 °F (1993)
Min Temperature 21 °F 30 °F 16 °F (1996)
Degree Days  
Heating Degree Days 29    
Moisture  
Dew Point 23 °F    
Average Humidity 67    
Maximum Humidity 92    
Minimum Humidity 33    
Precipitation  
Precipitation 0.00 in - - ()
Sea Level Pressure  
Sea Level Pressure 30.19 in    
Wind  
Wind Speed 2 mph ()    
Max Wind Speed 10 mph    
Max Gust Speed -    
Visibility 10.0 miles    
Events      
Averages and records for this station are not official NWS values.
T = Trace of Precipitation, MM = Missing Value Source: Averaged Metar Reports

Daily Weather History Graph

Daily Weather History Graph

Search for Another Location

Airport or City:

Astronomy

Nov. 15, 2019 Rise Set
Actual Time 6:37 AM EST 4:28 PM EST
Civil Twilight 6:07 AM EST 4:58 PM EST
Nautical Twilight 5:34 AM EST 5:31 PM EST
Astronomical Twilight 5:01 AM EST 6:04 PM EST
Moon 6:59 PM EST (11/15) 9:32 AM EST (11/15)
Length of Visible Light 10h 50m
Length of Day
9h 50m
Waning Gibbous, 90% of the Moon is Illuminated
Nov 15
Waning Gibbous
Nov 19
Last Quarter
Nov 26
New
Dec 4
First Quarter
Dec 12
Full

Hourly Weather History & Observations

Time (EST) Temp. Windchill Dew Point Humidity Pressure Visibility Wind Dir Wind Speed Gust Speed Precip Events Conditions
12:52 AM 28.0 °F - 26.1 °F 92% 30.27 in - Calm Calm - N/A   Clear
1:52 AM 27.0 °F - 25.0 °F 92% 30.27 in - Calm Calm - N/A   Clear
2:52 AM 25.0 °F - 23.0 °F 92% 30.25 in - Calm Calm - N/A   Clear
3:52 AM 25.0 °F - 23.0 °F 92% 30.24 in - Calm Calm - N/A   Clear
4:52 AM 21.9 °F - 19.9 °F 92% 30.25 in - Calm Calm - N/A   Clear
5:52 AM 21.9 °F - 19.0 °F 89% 30.24 in - Calm Calm - N/A   Clear
6:52 AM 21.9 °F - 19.0 °F 89% 30.24 in - Calm Calm - N/A   Clear
7:52 AM 25.0 °F - 23.0 °F 92% 30.24 in - Calm Calm - N/A   Clear
8:52 AM 32.0 °F - 27.0 °F 82% 30.22 in - Calm Calm - N/A   Clear
9:52 AM 42.1 °F 40.2 °F 25.0 °F 51% 30.20 in - Variable 3.5 mph - N/A   Clear
11:52 AM 48.9 °F - 24.1 °F 38% 30.13 in 10.0 mi West 8.1 mph - N/A   Clear
12:52 PM 50.0 °F - 24.1 °F 36% 30.11 in 10.0 mi WSW 6.9 mph - N/A   Clear
1:52 PM 51.1 °F - 23.0 °F 33% 30.10 in 10.0 mi WNW 10.4 mph - N/A   Clear
2:52 PM 50.0 °F - 21.9 °F 33% 30.09 in 10.0 mi West 8.1 mph - N/A   Clear
3:52 PM 48.9 °F - 21.9 °F 35% 30.10 in 10.0 mi West 5.8 mph - N/A   Clear
4:52 PM 43.0 °F - 24.1 °F 47% 30.10 in 10.0 mi Calm Calm - N/A   Clear
5:52 PM 39.9 °F 37.8 °F 23.0 °F 51% 30.13 in 10.0 mi WSW 3.5 mph - N/A   Clear
6:52 PM 33.1 °F - 23.0 °F 66% 30.14 in 10.0 mi Calm Calm - N/A   Clear
7:52 PM 30.0 °F - 23.0 °F 75% 30.15 in 10.0 mi Calm Calm - N/A   Clear
8:52 PM 28.9 °F 25.2 °F 23.0 °F 78% 30.17 in 10.0 mi Variable 3.5 mph - N/A   Clear
9:52 PM 39.9 °F 35.1 °F 27.0 °F 60% 30.21 in 10.0 mi NW 6.9 mph - N/A   Clear
10:52 PM 39.0 °F 32.8 °F 25.0 °F 57% 30.22 in 10.0 mi NNW 9.2 mph - N/A   Clear
11:52 PM 37.9 °F 32.7 °F 25.0 °F 60% 30.22 in 10.0 mi NW 6.9 mph - N/A   Clear